Regional Weather Roundup
Issued by NWS

Home | Current Version | Previous Version | Graphics & Text | Print | Product List | Glossary On
Versions: 1 2 3 4 5 6 7 8 9 10 11 12 13 14 15 16 17 18 19 20 21 22 23 24 25 26 27 28 29 30 31 32 33 34 35 36 37 38 39 40 41 42 43 44 45 46 47 48 49 50
000
ASUS43 KMPX 210501
RWRMN
WEATHER ROUNDUP FOR MINNESOTA
NATIONAL WEATHER SERVICE TWIN CITIES/CHANHASSEN MN
1100 PM CST MON NOV 20 2017


NOTE: "FAIR" INDICATES FEW OR NO CLOUDS BELOW 12,000 FEET WITH NO
SIGNIFICANT WEATHER AND/OR OBSTRUCTIONS TO VISIBILITY. N/A MEANS
CURRENT SKY AND/OR WEATHER CONDITIONS ARE NOT AVAILABLE.

MNZ060>063-068>070-210600-
   Twin Cities Metro

CITY           SKY/WX    TMP DP  RH WIND       PRES   REMARKS
TWIN CITIES    PTCLDY    43  29  57 NW20G26   29.52R
ST PAUL        CLEAR     43  28  55 W17G24    29.52R
CRYSTAL        CLOUDY    43  26  51 W18       29.51R
BLAINE         CLOUDY    45  30  57 W15G21    29.51R
LAKEVILLE      CLEAR     39  28  65 W13       29.53R
EDEN PRAIRIE   CLEAR     43  27  53 W14G22    29.53R
SOUTH ST PAUL  CLEAR     43  27  54 W10G16    29.51R
LAKE ELMO      FAIR      43  30  61 W10G17    29.50R
$$
MNZ001>005-007-008-013>017-022>024-027-028-210600-
   Northwest Minnesota

CITY           SKY/WX    TMP DP  RH WIND       PRES   REMARKS
BEMIDJI        CLOUDY    25  17  70 NW28G43   29.47R WCI   8
HALLOCK        LGT SNOW  19  16  86 NW31G39   29.56R WCI   0
ROSEAU         MOCLDY    21  14  73 W22G31    29.46R WCI   5
WARROAD        CLOUDY    21  14  73 W24G32    29.43R WCI   4
CROOKSTON      CLOUDY    25  16  68 NW28G33   29.60R WCI   8
FOSSTON        FLURRIES  21  14  73 W28G33    29.55R WCI   3
DETROIT LAKES  CLOUDY    30  23  74 NW28G33   29.58R WCI  16
MOORHEAD       MOCLDY    28  19  69 NW23G32   29.64R WCI  14
PARK RAPIDS    MOCLDY    29  21  72 NW25G39   29.49R WCI  14
MAHNOMEN       CLOUDY    25  17  69 NW26G40   29.55R WCI   9
$$
MNZ006-009>011-018-025>026-210600-
   North Central Minnesota

CITY           SKY/WX    TMP DP  RH WIND       PRES   REMARKS
BAUDETTE       CLOUDY    23  14  68 W24G36    29.38R WCI   7
FLAG ISLAND    CLOUDY    21  16  79 W32G41    29.36R WCI   2
INTL FALLS       N/A     26  16  65 W18G31    29.32R WCI  13
WASKISH        CLOUDY    25  18  74 NW21G29   29.43R WCI  10
BIG FORK       CLOUDY    28  21  74 W15G26    29.38R WCI  17
LONGVILLE      MOCLDY    30  19  64 NW21G30   29.45R WCI  17
GRAND RAPIDS   CLOUDY    32  22  66 NW25G38   29.39R WCI  19
CRANE LAKE       N/A     28 N/A N/A W13G21    29.28R WCI  18
ORR            CLOUDY    28  21  74 NW20G29   29.28R WCI  15
COOK           CLOUDY    30  25  80 W22G39    29.31R WCI  17
WALKER         CLOUDY    27  18  68 W25G35    29.46R WCI  12
$$
MNZ012-019>021-037-210600-
   Northeast Minnesota

CITY           SKY/WX    TMP DP  RH WIND       PRES   REMARKS
DULUTH         CLOUDY    37  28  70 W32G40    29.30R
ELY            CLOUDY    36  28  75 W25G35    29.22R
HIBBING        CLOUDY    34  24  67 W17G33    29.32R WCI  23
EVELETH        DRIZZLE   36  25  64 W22G33    29.31R
DULUTH HARBOR  CLOUDY    39  30  70 W17       29.33R
TWO HARBORS    CLOUDY    39  30  70 W12G20    29.26R
SILVER BAY     CLOUDY    37  28  70 W8        29.22R
G MARAIS ARPRT CLOUDY    28  25  86 SW7       29.16S WCI  21
$$
MNZ029>031-032-039>041-046>048-054>057-064-210600-
   West Central Minnesota

CITY           SKY/WX    TMP DP  RH WIND       PRES   REMARKS
FERGUS FALLS   CLOUDY    28  21  74 NW20      29.63R WCI  15
WHEATON        MOCLDY    34  12  40 NW26G33   29.68R WCI  21
MORRIS         CLOUDY    34  19  55 NW26G35   29.61R WCI  21
ALEXANDRIA     CLOUDY    32  21  64 W24G36    29.57R WCI  19
ELBOW LAKE     FAIR      30  19  63 NW23G32   29.61R WCI  17
WADENA         CLOUDY    30  21  69 NW24G36   29.52R WCI  16
GLENWOOD       CLOUDY    34  23  64 W21G26    29.59R WCI  22
APPLETON       CLEAR     37  19  48 NW21G26   29.64R
BENSON         CLEAR     34  19  55 NW13      29.63R WCI  25
ORTONVILLE     CLEAR     36  18  48 MISG      29.66R
MADISON        CLEAR     37  21  52 NW15G25   29.66R
WILLMAR        FAIR      37  25  60 NW17      29.61R
$$
MNZ033>034-036-042>043-049>051-058-059-210600-
   Central Minnesota

CITY           SKY/WX    TMP DP  RH WIND       PRES   REMARKS
ST CLOUD       PTCLDY    38  28  67 W15G26    29.52R
SAUK CENTRE    FAIR      33  25  71 W20G28    29.55R WCI  21
PAYNESVILLE    CLOUDY    36  29  74 W16G22    29.57R
AITKIN         CLOUDY    34  21  60 W13G24    29.42R WCI  25
PINE RIVER     CLOUDY    30  19  64 NW18G30   29.51R WCI  18
BRAINERD       CLOUDY    36  24  62 W17G24    29.47R
STAPLES        CLOUDY    32  23  69 W16G25    29.50R WCI  21
LONG PRAIRIE   FAIR      34  27  75 W15G25    29.52R WCI  24
LITTLE FALLS   CLOUDY    36  21  55 W13G23    29.52R
LITCHFIELD     CLEAR     39  28  65 W13G21    29.58R
BUFFALO        CLEAR     40  29  63 W14       29.55R
MAPLE LAKE     CLOUDY    40  31  68 W10G18    29.55R
HUTCHINSON     CLOUDY    40  30  68 W15G21    29.59R
$$
MNZ037-044-045-052-053-210600-
   East Central Minnesota

CITY           SKY/WX    TMP DP  RH WIND       PRES   REMARKS
PRINCETON      CLOUDY    41  30  65 W10G17    29.50R
MORA           CLOUDY    37  28  70 W12G20    29.47R
CAMBRIDGE      CLOUDY    43  30  61 W10G17    29.48R
RUSH CITY      CLOUDY    40  29  65 W9G17     29.46R
MOOSE LAKE     CLOUDY    37  28  70 W15G29    29.37R
HINCKLEY       FAIR      39  32  75 W20G29    29.43R
CLOQUET        CLOUDY    37  27  65 W17       29.34R
MCGREGOR       CLOUDY    37  28  70 W15G25    29.41R
$$
MNZ071>073-080-081-089-090-097-098-210600-
   Southwest Minnesota

CITY           SKY/WX    TMP DP  RH WIND       PRES   REMARKS
MONTEVIDEO     CLEAR     37  21  52 N18G28    29.63R
GRANITE FALLS  CLEAR     38  24  57 W15       29.67R
CANBY          CLEAR     38  21  50 W10G18    29.69R
MARSHALL       CLEAR     38  24  57 NW14      29.67R
REDWOOD FALLS  CLEAR     41  23  48 NW16G23   29.63R
OLIVIA         CLEAR     36  27  69 NW12      29.61R
PIPESTONE      CLOUDY    37  25  60 NW9       29.66R
WINDOM         CLEAR     39  21  48 NW13      29.63R
WORTHINGTON    PTCLDY    41  24  51 NW16      29.65R
JACKSON        CLEAR     41  25  52 NW15      29.63R
SLAYTON        CLOUDY    37  26  64 NW14      29.65R
$$
MNZ065>067-074>077-082>085-091>093-210600-
   South Central Minnesota

CITY           SKY/WX    TMP DP  RH WIND       PRES   REMARKS
MANKATO        CLEAR     43  27  53 NW18G26   29.58R
NEW ULM        CLEAR     41  27  56 NW16G26   29.61R
ST JAMES       CLEAR     41  27  56 NW17G24   29.63R
FAIRMONT       CLEAR     42  25  50 NW15      29.62R
GLENCOE        CLEAR     40  30  66 W14       29.57R
FARIBAULT      CLEAR     43  27  52 W13G18    29.55R
OWATONNA       CLEAR     36  28  75 W8        29.56R
WASECA         CLEAR     32  27  80 W7        29.59R WCI  26
ALBERT LEA     CLEAR     39  27  60 W8        29.58R
$$
MNZ078>079-086>088-094>096-210600-
   Southeast Minnesota

CITY           SKY/WX    TMP DP  RH WIND       PRES   REMARKS
ROCHESTER      CLEAR     38  29  70 W14       29.55R
RED WING       CLEAR     43  25  49 W8        29.50R
STANTON        CLEAR     44  28  52 W12       29.52R
DODGE CENTER   CLEAR     37  27  65 W14       29.54S
WINONA         CLOUDY    43  30  61 W3        29.53S
AUSTIN         CLEAR     39  28  65 W7        29.57R
PRESTON        PTCLDY    40  28  63 SW14      29.55S
$$
ABBREVIATIONS USED IN REMARKS
   TC - TEMPERATURES IN CELSIUS
  WCI - WIND CHILL INDEX
   HX - HEAT INDEX
  VSB - VISIBILITY
$$




USA.gov is the U.S. government's official web portal to all federal, state and local government web resources and services.